RH
69 63 52 45 43 35 28 26 22 19 18 18 18 20 22 24 29 31 30 34 34 36 34 37 45 47 53 57 64 63 65 69 75 78 82 87 87 86 87 90 94 95 96 98 96 96 96 96 93 91 98 97 95 94
71 66 55 47 45 37 30 28 24 20 19 19 20 23 25 29 31 30 29 35 36 38 33 38 42 46 51 55 63 64 70 74 79 83 85 86 91 91 91 93 90 96 98 98 98 97 95 98 98 98 98 98 95 92
73 67 57 48 47 38 33 30 25 21 20 20 21 23 23 29 32 31 31 35 38 38 38 35 40 44 50 55 60 63 65 68 73 80 83 84 88 93 94 90 94 94 96 98 98 98 98 98 98 98 97 96 94 91
73 68 59 50 49 40 34 32 27 23 21 21 22 24 24 23 31 37 34 36 38 45 41 36 41 42 44 47 50 54 58 65 66 71 77 79 87 94 94 95 96 97 97 98 98 98 95 99 98 98 97 95 92 91
74 68 58 52 50 44 36 33 30 24 22 22 23 25 25 26 34 41 37 38 40 40 40 38 38 40 41 44 46 47 51 57 61 63 71 78 86 94 94 94 98 97 99 98 97 98 99 97 97 95 94 92 91 91
76 66 59 55 52 45 38 35 32 26 23 23 24 27 26 29 37 41 39 40 41 44 43 39 36 40 42 41 42 47 51 56 59 59 66 77 86 92 92 95 97 98 99 99 99 99 98 97 96 95 96 95 94 94
78 68 61 57 53 45 41 37 33 31 24 26 28 28 29 34 38 40 36 38 41 44 43 38 38 39 39 39 40 45 48 53 57 60 66 77 84 85 93 97 98 98 99 99 99 98 98 97 98 99 99 98 97 97
80 69 61 59 53 47 44 39 34 31 25 31 30 33 37 37 39 40 42 42 45 44 44 43 38 35 39 38 38 41 48 51 58 63 67 74 79 81 91 94 97 98 98 99 99 99 99 99 99 99 99 99 98 98
75 66 64 59 55 50 46 42 35 31 32 36 32 36 41 39 42 43 45 46 47 45 44 43 43 42 40 39 40 44 47 55 58 64 67 71 81 87 90 96 98 98 99 99 99 99 99 99 99 99 99 99 98 99
74 71 65 60 56 53 47 44 38 33 43 36 35 46 42 43 47 46 51 50 47 46 47 44 44 42 40 42 45 49 55 59 64 63 65 69 75 85 93 97 98 98 99 99 98 98 98 99 99 99 99 99 99 99
77 71 63 62 61 53 48 45 39 38 44 35 36 46 43 49 51 53 52 47 46 46 48 47 43 42 45 47 49 55 59 61 66 67 71 71 74 84 92 95 96 98 99 99 99 99 99 99 100 99 99 99 98 97
76 69 69 69 62 51 51 49 38 48 38 36 45 48 53 53 54 52 53 50 47 46 45 43 41 42 44 48 52 58 61 65 67 67 71 70 78 85 89 91 93 96 96 95 97 98 98 99 100 100 100 99 98 96
75 77 74 68 57 59 58 43 46 48 38 49 53 55 53 51 55 52 51 49 44 43 43 42 41 40 48 54 55 61 66 66 67 70 70 70 77 82 84 84 87 91 94 99 98 95 96 99 99 100 100 100 100 99
81 79 74 66 67 65 51 51 57 41 46 56 51 55 50 54 52 51 48 45 45 44 43 39 38 42 49 54 60 64 68 69 72 71 67 72 80 82 82 83 80 81 84 87 93 94 95 99 100 100 100 100 100 100
85 81 72 73 71 57 60 62 46 42 58 55 52 53 54 53 53 49 48 48 46 41 38 39 41 46 52 57 64 66 71 72 70 68 75 78 77 76 75 75 75 76 77 78 82 85 91 97 100 100 100 100 100 100
85 79 80 74 66 71 66 54 47 57 61 53 53 55 56 54 53 49 49 48 42 40 40 41 48 52 56 59 63 65 69 67 69 74 78 78 77 76 73 73 75 76 78 79 81 84 89 90 95 98 100 100 100 100
86 85 76 75 77 68 58 53 56 63 61 56 56 57 55 53 52 49 47 45 42 43 42 43 48 52 59 63 64 65 66 68 74 79 79 75 71 70 72 75 77 79 79 80 83 88 92 92 92 96 97 100 99 97
87 81 84 79 71 64 59 59 63 65 64 59 59 58 58 55 50 48 46 43 44 41 40 43 45 52 58 61 61 64 70 72 72 71 71 71 71 73 75 77 77 76 77 80 85 91 95 95 95 97 99 97 95 90
89 88 80 75 69 62 59 63 67 65 64 59 61 62 60 54 50 48 44 44 42 40 40 42 45 51 53 57 61 65 66 65 66 69 70 70 69 69 68 67 65 64 67 70 74 81 86 89 91 91 88 87 85 84
88 83 80 74 67 59 62 69 64 63 60 61 67 64 60 54 51 46 45 45 42 41 40 44 47 49 53 56 56 58 61 63 61 62 63 65 67 66 63 61 62 63 65 67 69 76 82 84 86 84 83 85 82 81
87 84 78 72 65 67 71 68 66 63 66 65 64 61 59 54 50 47 45 42 40 38 42 44 48 50 51 55 57 58 57 60 64 68 70 71 70 64 62 62 63 63 64 64 66 69 72 74 75 76 77 79 80 79
86 81 77 71 73 73 70 70 68 71 70 66 63 62 57 53 50 47 43 38 37 39 43 46 47 49 55 57 56 58 63 68 71 73 73 67 61 59 57 55 54 53 54 56 59 61 63 66 67 70 71 72 73 73
86 82 79 79 78 75 74 73 73 72 65 67 63 57 54 51 49 45 40 38 40 43 46 47 51 55 56 56 60 67 71 73 74 73 68 61 54 49 47 48 51 54 57 59 61 62 63 64 67 68 69 69 69 70
89 86 83 80 76 79 79 77 70 66 66 64 60 56 54 52 49 44 41 41 43 47 48 52 55 55 57 61 69 73 76 77 74 65 57 47 45 50 54 58 60 63 67 70 73 74 75 76 77 76 74 72 72 71
90 85 79 79 78 77 75 68 66 65 63 61 60 55 53 50 47 45 44 43 46 49 52 55 57 59 63 69 75 77 77 73 66 54 44 48 54 60 64 66 67 69 73 76 77 79 80 80 80 78 77 76 75 74
91 85 78 75 74 67 66 64 64 63 62 59 56 54 51 48 48 46 47 45 46 49 53 56 59 64 70 75 78 76 71 66 55 47 52 58 63 67 69 70 72 76 79 82 84 85 85 85 85 84 83 83 82 81
88 84 75 67 65 60 60 62 62 58 57 54 52 52 51 50 49 47 47 47 49 53 58 61 65 71 77 78 74 68 61 56 52 55 62 67 68 69 68 70 72 77 80 82 82 83 83 83 84 84 84 83 84 85
81 74 68 64 63 65 65 61 58 55 52 50 50 50 47 46 49 50 49 50 54 59 63 67 72 76 76 71 65 59 57 56 59 64 66 67 68 70 72 73 75 76 76 76 77 79 83 86 87 86 85 85 84 86
73 72 69 71 68 65 61 58 54 50 49 50 48 48 48 49 50 50 51 54 59 65 70 73 75 73 67 59 56 57 58 60 65 67 70 71 70 69 68 69 70 72 74 76 78 78 79 81 83 85 85 86 88 88
76 72 70 68 63 58 54 51 51 50 51 50 49 50 51 51 51 53 55 60 66 72 74 74 69 61 55 55 57 59 63 67 71 74 74 72 71 73 76 79 82 83 84 83 81 80 81 81 83 84 85 85 84 84
67 64 60 56 54 53 52 52 53 53 54 53 54 54 53 53 55 58 63 68 72 73 70 64 55 50 52 56 61 64 68 73 76 76 76 77 80 83 85 86 88 92 94 94 91 87 82 79 78 76 77 78 78 79
55 54 54 55 56 55 55 57 59 58 57 58 57 56 56 58 62 67 70 72 70 65 60 50 47 50 55 59 65 69 73 75 77 79 81 83 85 87 87 87 87 88 89 90 91 93 90 86 82 80 78 76 75 76
58 57 57 56 58 60 62 61 60 60 60 59 59 59 62 68 72 73 71 66 62 55 46 44 49 56 62 65 69 72 76 78 79 81 82 84 84 85 87 88 87 87 87 87 88 90 92 91 88 84 82 79 78 76